Simultaneous Nadir Overpasses (SNOs) Predictions

Prediction of SNOs between LANDSAT-8 and NOAA-19 Satellite Orbit:

Table of predicted SNOs for the next 14.0 days since TLE Epoch: 9/17/2022
Index Date (LANDSAT-8) Time (LANDSAT-8) Lat,Lon (LANDSAT-8) SZA (LANDSAT-8 ) Date (NOAA-19) Time (NOAA-19) Lat,Lon (NOAA-19) SZA (NOAA-19 ) Distance(km) Time Diff (sec)
1 09/17/2022 20:55:40 80.86, -97.53 80.75 09/17/2022 20:55:15 80.85, -97.55 80.74 0.53 25
2 09/17/2022 21:45:07 -80.85, 70.06 99.25 09/17/2022 21:46:16 -80.85, 69.92 99.23 2.47 69
3 09/20/2022 03:18:51 80.86, 166.66 81.64 09/20/2022 03:19:06 80.85, 166.67 81.65 0.52 15
4 09/22/2022 08:52:36 -80.85, -96.89 97.50 09/22/2022 08:51:59 -80.86, -96.84 97.50 1.49 37
5 09/22/2022 09:42:02 80.85, 70.79 82.53 09/22/2022 09:42:57 80.85, 70.86 82.56 1.31 55
6 09/24/2022 15:15:45 -80.87, 167.54 96.56 09/24/2022 15:15:48 -80.86, 167.48 96.58 1.54 3
7 09/26/2022 20:49:29 80.85, -96.10 84.29 09/26/2022 20:48:40 80.86, -96.01 84.29 2.10 49
8 09/26/2022 21:38:56 -80.85, 71.57 95.70 09/26/2022 21:39:39 -80.86, 71.40 95.69 3.14 43



Historial Predications of SNOs between LANDSAT-8 and NOAA-19
